Retour au catalogue

STARLINK-6052

ActifCommunicationsVLEO
NORAD 56793·PAYLOAD·🇺🇸 United States

Lancé May 31, 2023 depuis Vandenberg Space Force Base

Loading…

Prochains Passages (prochaines 24 heures)

TLE

FraisSource: CelesTrak SupGP

Époque: Sep 15, 2026, 03:03 UTC

1 56793C 23078AC  26258.12756944 -.00031091  00000+0 -26057-2 0  2586
2 56793  70.0014 226.8114 0003377 265.4848 186.7017 14.98343525    10

Suivez STARLINK-6052 en temps réel avec AllMySat

Download on the App Store